owner,sensor,date,latitude,longitude,vertical_datum,sea_water_temperature,qcFlag 
WAVCIS,ioos:station:WAVCIS:CSI09:1,2015-11-01T00:00:00Z,29.1015,-89.9782,0.0,24.36,11111222 
WAVCIS,ioos:station:WAVCIS:CSI09:1,2015-11-01T01:00:00Z,29.1015,-89.9782,0.0,24.24,11111222 
WAVCIS,ioos:station:WAVCIS:CSI09:1,2015-11-01T02:00:00Z,29.1015,-89.9782,0.0,24.24,11111222 
WAVCIS,ioos:station:WAVCIS:CSI09:1,2015-11-01T03:00:00Z,29.1015,-89.9782,0.0,24.24,11111222 
WAVCIS,ioos:station:WAVCIS:CSI09:1,2015-11-01T04:00:00Z,29.1015,-89.9782,0.0,24.34,11111222 
WAVCIS,ioos:station:WAVCIS:CSI09:1,2015-11-01T05:00:00Z,29.1015,-89.9782,0.0,24.31,11111222 
WAVCIS,ioos:station:WAVCIS:CSI09:1,2015-11-01T06:00:00Z,29.1015,-89.9782,0.0,24.32,11111222 
WAVCIS,ioos:station:WAVCIS:CSI09:1,2015-11-01T07:00:00Z,29.1015,-89.9782,0.0,24.29,11111222 
WAVCIS,ioos:station:WAVCIS:CSI09:1,2015-11-01T08:00:00Z,29.1015,-89.9782,0.0,24.2,11111222 
WAVCIS,ioos:station:WAVCIS:CSI09:1,2015-11-01T09:00:00Z,29.1015,-89.9782,0.0,24.17,11111222 
WAVCIS,ioos:station:WAVCIS:CSI09:1,2015-11-01T10:00:00Z,29.1015,-89.9782,0.0,24.13,11111222 
WAVCIS,ioos:station:WAVCIS:CSI09:1,2015-11-01T11:00:00Z,29.1015,-89.9782,0.0,24.14,11111222 
WAVCIS,ioos:station:WAVCIS:CSI09:1,2015-11-01T12:00:00Z,29.1015,-89.9782,0.0,24.14,11111222 
WAVCIS,ioos:station:WAVCIS:CSI09:1,2015-11-01T13:00:00Z,29.1015,-89.9782,0.0,24.16,11111222 
WAVCIS,ioos:station:WAVCIS:CSI09:1,2015-11-01T14:00:00Z,29.1015,-89.9782,0.0,24.12,11111222 
WAVCIS,ioos:station:WAVCIS:CSI09:1,2015-11-01T15:00:00Z,29.1015,-89.9782,0.0,24.11,11111222 
WAVCIS,ioos:station:WAVCIS:CSI09:1,2015-11-01T16:00:00Z,29.1015,-89.9782,0.0,24.1,11111222 
WAVCIS,ioos:station:WAVCIS:CSI09:1,2015-11-01T17:00:00Z,29.1015,-89.9782,0.0,24.09,11111222 
WAVCIS,ioos:station:WAVCIS:CSI09:1,2015-11-01T18:00:00Z,29.1015,-89.9782,0.0,24.07,11111222 
WAVCIS,ioos:station:WAVCIS:CSI09:1,2015-11-01T19:00:00Z,29.1015,-89.9782,0.0,24.11,11111222 
WAVCIS,ioos:station:WAVCIS:CSI09:1,2015-11-01T20:00:00Z,29.1015,-89.9782,0.0,24.09,11111222 
WAVCIS,ioos:station:WAVCIS:CSI09:1,2015-11-01T21:00:00Z,29.1015,-89.9782,0.0,24.08,11111222 
WAVCIS,ioos:station:WAVCIS:CSI09:1,2015-11-01T22:00:00Z,29.1015,-89.9782,0.0,24.04,11111222 
WAVCIS,ioos:station:WAVCIS:CSI09:1,2015-11-01T23:00:00Z,29.1015,-89.9782,0.0,24.04,11111222 
WAVCIS,ioos:station:WAVCIS:CSI09:1,2015-11-02T00:00:00Z,29.1015,-89.9782,0.0,24.04,11111222 
WAVCIS,ioos:station:WAVCIS:CSI09:1,2015-11-02T01:00:00Z,29.1015,-89.9782,0.0,24.05,11111222 
WAVCIS,ioos:station:WAVCIS:CSI09:1,2015-11-02T02:00:00Z,29.1015,-89.9782,0.0,24.05,11111222 
WAVCIS,ioos:station:WAVCIS:CSI09:1,2015-11-02T03:00:00Z,29.1015,-89.9782,0.0,24.05,11111222 
WAVCIS,ioos:station:WAVCIS:CSI09:1,2015-11-02T04:00:00Z,29.1015,-89.9782,0.0,24.04,11111222 
WAVCIS,ioos:station:WAVCIS:CSI09:1,2015-11-02T05:00:00Z,29.1015,-89.9782,0.0,24.06,11111222 
WAVCIS,ioos:station:WAVCIS:CSI09:1,2015-11-02T06:00:00Z,29.1015,-89.9782,0.0,24.11,11111222 
WAVCIS,ioos:station:WAVCIS:CSI09:1,2015-11-02T07:00:00Z,29.1015,-89.9782,0.0,24.1,11111222 
WAVCIS,ioos:station:WAVCIS:CSI09:1,2015-11-02T08:00:00Z,29.1015,-89.9782,0.0,24.12,11111222 
WAVCIS,ioos:station:WAVCIS:CSI09:1,2015-11-02T09:00:00Z,29.1015,-89.9782,0.0,24.08,11111222 
WAVCIS,ioos:station:WAVCIS:CSI09:1,2015-11-02T10:00:00Z,29.1015,-89.9782,0.0,24.07,11111222 
WAVCIS,ioos:station:WAVCIS:CSI09:1,2015-11-02T11:00:00Z,29.1015,-89.9782,0.0,24.08,11111222 
WAVCIS,ioos:station:WAVCIS:CSI09:1,2015-11-02T12:00:00Z,29.1015,-89.9782,0.0,24.03,11111222 
WAVCIS,ioos:station:WAVCIS:CSI09:1,2015-11-02T13:00:00Z,29.1015,-89.9782,0.0,24.01,11111222 
WAVCIS,ioos:station:WAVCIS:CSI09:1,2015-11-02T14:00:00Z,29.1015,-89.9782,0.0,24.02,11111222 
WAVCIS,ioos:station:WAVCIS:CSI09:1,2015-11-02T15:00:00Z,29.1015,-89.9782,0.0,24.07,11111222 
WAVCIS,ioos:station:WAVCIS:CSI09:1,2015-11-02T16:00:00Z,29.1015,-89.9782,0.0,24.06,11111222 
WAVCIS,ioos:station:WAVCIS:CSI09:1,2015-11-02T17:00:00Z,29.1015,-89.9782,0.0,24.11,11111222 
WAVCIS,ioos:station:WAVCIS:CSI09:1,2015-11-02T18:00:00Z,29.1015,-89.9782,0.0,24.16,11111222 
WAVCIS,ioos:station:WAVCIS:CSI09:1,2015-11-02T19:00:00Z,29.1015,-89.9782,0.0,24.19,11111222 
WAVCIS,ioos:station:WAVCIS:CSI09:1,2015-11-02T20:00:00Z,29.1015,-89.9782,0.0,24.19,11111222 
WAVCIS,ioos:station:WAVCIS:CSI09:1,2015-11-02T21:00:00Z,29.1015,-89.9782,0.0,24.31,11111222 
WAVCIS,ioos:station:WAVCIS:CSI09:1,2015-11-02T22:00:00Z,29.1015,-89.9782,0.0,24.27,11111222 
WAVCIS,ioos:station:WAVCIS:CSI09:1,2015-11-02T23:00:00Z,29.1015,-89.9782,0.0,24.37,11111222 
WAVCIS,ioos:station:WAVCIS:CSI09:1,2015-11-03T00:00:00Z,29.1015,-89.9782,0.0,24.29,11111222 
WAVCIS,ioos:station:WAVCIS:CSI09:1,2015-11-03T01:00:00Z,29.1015,-89.9782,0.0,24.23,11111222 
WAVCIS,ioos:station:WAVCIS:CSI09:1,2015-11-03T02:00:00Z,29.1015,-89.9782,0.0,24.24,11111222 
WAVCIS,ioos:station:WAVCIS:CSI09:1,2015-11-03T03:00:00Z,29.1015,-89.9782,0.0,24.26,11111222 
WAVCIS,ioos:station:WAVCIS:CSI09:1,2015-11-03T04:00:00Z,29.1015,-89.9782,0.0,24.25,11111222 
WAVCIS,ioos:station:WAVCIS:CSI09:1,2015-11-03T05:00:00Z,29.1015,-89.9782,0.0,24.25,11111222 
WAVCIS,ioos:station:WAVCIS:CSI09:1,2015-11-03T06:00:00Z,29.1015,-89.9782,0.0,24.27,11111222 
WAVCIS,ioos:station:WAVCIS:CSI09:1,2015-11-03T07:00:00Z,29.1015,-89.9782,0.0,24.19,11111222 
WAVCIS,ioos:station:WAVCIS:CSI09:1,2015-11-03T08:00:00Z,29.1015,-89.9782,0.0,24.09,11111222 
WAVCIS,ioos:station:WAVCIS:CSI09:1,2015-11-03T09:00:00Z,29.1015,-89.9782,0.0,23.9,11111222 
WAVCIS,ioos:station:WAVCIS:CSI09:1,2015-11-03T10:00:00Z,29.1015,-89.9782,0.0,24.16,11111222 
WAVCIS,ioos:station:WAVCIS:CSI09:1,2015-11-03T11:00:00Z,29.1015,-89.9782,0.0,24.25,11111222 
WAVCIS,ioos:station:WAVCIS:CSI09:1,2015-11-03T12:00:00Z,29.1015,-89.9782,0.0,24.3,11111222 
WAVCIS,ioos:station:WAVCIS:CSI09:1,2015-11-03T13:00:00Z,29.1015,-89.9782,0.0,24.26,11111222 
WAVCIS,ioos:station:WAVCIS:CSI09:1,2015-11-03T14:00:00Z,29.1015,-89.9782,0.0,24.25,11111222 
WAVCIS,ioos:station:WAVCIS:CSI09:1,2015-11-03T15:00:00Z,29.1015,-89.9782,0.0,24.23,11111222 
WAVCIS,ioos:station:WAVCIS:CSI09:1,2015-11-03T16:00:00Z,29.1015,-89.9782,0.0,24.23,11111222 
WAVCIS,ioos:station:WAVCIS:CSI09:1,2015-11-03T17:00:00Z,29.1015,-89.9782,0.0,24.22,11111222 
WAVCIS,ioos:station:WAVCIS:CSI09:1,2015-11-03T18:00:00Z,29.1015,-89.9782,0.0,24.25,11111222 
WAVCIS,ioos:station:WAVCIS:CSI09:1,2015-11-03T19:00:00Z,29.1015,-89.9782,0.0,24.23,11111222 
WAVCIS,ioos:station:WAVCIS:CSI09:1,2015-11-03T20:00:00Z,29.1015,-89.9782,0.0,24.24,11111222 
WAVCIS,ioos:station:WAVCIS:CSI09:1,2015-11-03T21:00:00Z,29.1015,-89.9782,0.0,24.22,11111222 
WAVCIS,ioos:station:WAVCIS:CSI09:1,2015-11-03T22:00:00Z,29.1015,-89.9782,0.0,24.21,11111222 
WAVCIS,ioos:station:WAVCIS:CSI09:1,2015-11-03T23:00:00Z,29.1015,-89.9782,0.0,24.23,11111222 
WAVCIS,ioos:station:WAVCIS:CSI09:1,2015-11-04T00:00:00Z,29.1015,-89.9782,0.0,24.23,11111222 
WAVCIS,ioos:station:WAVCIS:CSI09:1,2015-11-04T01:00:00Z,29.1015,-89.9782,0.0,24.25,11111222 
WAVCIS,ioos:station:WAVCIS:CSI09:1,2015-11-04T02:00:00Z,29.1015,-89.9782,0.0,24.17,11111222 
WAVCIS,ioos:station:WAVCIS:CSI09:1,2015-11-04T03:00:00Z,29.1015,-89.9782,0.0,24.12,11111222 
WAVCIS,ioos:station:WAVCIS:CSI09:1,2015-11-04T04:00:00Z,29.1015,-89.9782,0.0,24.1,11111222 
WAVCIS,ioos:station:WAVCIS:CSI09:1,2015-11-04T05:00:00Z,29.1015,-89.9782,0.0,24.11,11111222 
WAVCIS,ioos:station:WAVCIS:CSI09:1,2015-11-04T06:00:00Z,29.1015,-89.9782,0.0,24.1,11111222 
WAVCIS,ioos:station:WAVCIS:CSI09:1,2015-11-04T07:00:00Z,29.1015,-89.9782,0.0,24.2,11111222 
WAVCIS,ioos:station:WAVCIS:CSI09:1,2015-11-04T08:00:00Z,29.1015,-89.9782,0.0,24.21,11111222 
WAVCIS,ioos:station:WAVCIS:CSI09:1,2015-11-04T09:00:00Z,29.1015,-89.9782,0.0,24.31,11111222 
WAVCIS,ioos:station:WAVCIS:CSI09:1,2015-11-04T10:00:00Z,29.1015,-89.9782,0.0,24.31,11111222 
WAVCIS,ioos:station:WAVCIS:CSI09:1,2015-11-04T11:00:00Z,29.1015,-89.9782,0.0,24.24,11111222 
WAVCIS,ioos:station:WAVCIS:CSI09:1,2015-11-04T12:00:00Z,29.1015,-89.9782,0.0,24.35,11111222 
WAVCIS,ioos:station:WAVCIS:CSI09:1,2015-11-04T13:00:00Z,29.1015,-89.9782,0.0,24.19,11111222 
WAVCIS,ioos:station:WAVCIS:CSI09:1,2015-11-04T14:00:00Z,29.1015,-89.9782,0.0,24.21,11111222 
WAVCIS,ioos:station:WAVCIS:CSI09:1,2015-11-04T15:00:00Z,29.1015,-89.9782,0.0,24.2,11111222 
WAVCIS,ioos:station:WAVCIS:CSI09:1,2015-11-04T16:00:00Z,29.1015,-89.9782,0.0,24.21,11111222 
WAVCIS,ioos:station:WAVCIS:CSI09:1,2015-11-04T17:00:00Z,29.1015,-89.9782,0.0,24.19,11111222 
WAVCIS,ioos:station:WAVCIS:CSI09:1,2015-11-04T18:00:00Z,29.1015,-89.9782,0.0,24.33,11111222 
WAVCIS,ioos:station:WAVCIS:CSI09:1,2015-11-04T19:00:00Z,29.1015,-89.9782,0.0,24.47,11111222 
WAVCIS,ioos:station:WAVCIS:CSI09:1,2015-11-04T20:00:00Z,29.1015,-89.9782,0.0,24.48,11111222 
WAVCIS,ioos:station:WAVCIS:CSI09:1,2015-11-04T21:00:00Z,29.1015,-89.9782,0.0,24.59,11111222 
WAVCIS,ioos:station:WAVCIS:CSI09:1,2015-11-04T22:00:00Z,29.1015,-89.9782,0.0,24.64,11111222 
WAVCIS,ioos:station:WAVCIS:CSI09:1,2015-11-04T23:00:00Z,29.1015,-89.9782,0.0,24.63,11111222 
WAVCIS,ioos:station:WAVCIS:CSI09:1,2015-11-05T00:00:00Z,29.1015,-89.9782,0.0,24.59,11111222 
WAVCIS,ioos:station:WAVCIS:CSI09:1,2015-11-05T01:00:00Z,29.1015,-89.9782,0.0,24.53,11111222 
WAVCIS,ioos:station:WAVCIS:CSI09:1,2015-11-05T02:00:00Z,29.1015,-89.9782,0.0,24.47,11111222 
WAVCIS,ioos:station:WAVCIS:CSI09:1,2015-11-05T03:00:00Z,29.1015,-89.9782,0.0,24.44,11111222 
WAVCIS,ioos:station:WAVCIS:CSI09:1,2015-11-05T04:00:00Z,29.1015,-89.9782,0.0,24.41,11111222 
WAVCIS,ioos:station:WAVCIS:CSI09:1,2015-11-05T05:00:00Z,29.1015,-89.9782,0.0,24.43,11111222 
WAVCIS,ioos:station:WAVCIS:CSI09:1,2015-11-05T06:00:00Z,29.1015,-89.9782,0.0,24.4,11111222 
WAVCIS,ioos:station:WAVCIS:CSI09:1,2015-11-05T07:00:00Z,29.1015,-89.9782,0.0,24.37,11111222 
WAVCIS,ioos:station:WAVCIS:CSI09:1,2015-11-05T08:00:00Z,29.1015,-89.9782,0.0,24.36,11111222 
WAVCIS,ioos:station:WAVCIS:CSI09:1,2015-11-05T09:00:00Z,29.1015,-89.9782,0.0,24.35,11111222 
WAVCIS,ioos:station:WAVCIS:CSI09:1,2015-11-05T10:00:00Z,29.1015,-89.9782,0.0,24.35,11111222 
WAVCIS,ioos:station:WAVCIS:CSI09:1,2015-11-05T11:00:00Z,29.1015,-89.9782,0.0,24.34,11111222 
WAVCIS,ioos:station:WAVCIS:CSI09:1,2015-11-05T12:00:00Z,29.1015,-89.9782,0.0,24.26,11111222 
WAVCIS,ioos:station:WAVCIS:CSI09:1,2015-11-05T13:00:00Z,29.1015,-89.9782,0.0,24.19,11111222 
WAVCIS,ioos:station:WAVCIS:CSI09:1,2015-11-05T14:00:00Z,29.1015,-89.9782,0.0,24.22,11111222 
WAVCIS,ioos:station:WAVCIS:CSI09:1,2015-11-05T15:00:00Z,29.1015,-89.9782,0.0,24.3,11111222 
WAVCIS,ioos:station:WAVCIS:CSI09:1,2015-11-05T16:00:00Z,29.1015,-89.9782,0.0,24.31,11111222 
WAVCIS,ioos:station:WAVCIS:CSI09:1,2015-11-05T17:00:00Z,29.1015,-89.9782,0.0,24.36,11111222 
WAVCIS,ioos:station:WAVCIS:CSI09:1,2015-11-05T18:00:00Z,29.1015,-89.9782,0.0,24.39,11111222 
WAVCIS,ioos:station:WAVCIS:CSI09:1,2015-11-05T19:00:00Z,29.1015,-89.9782,0.0,24.47,11111222 
WAVCIS,ioos:station:WAVCIS:CSI09:1,2015-11-05T20:00:00Z,29.1015,-89.9782,0.0,24.54,11111222 
WAVCIS,ioos:station:WAVCIS:CSI09:1,2015-11-05T21:00:00Z,29.1015,-89.9782,0.0,24.6,11111222 
WAVCIS,ioos:station:WAVCIS:CSI09:1,2015-11-05T22:00:00Z,29.1015,-89.9782,0.0,24.58,11111222 
WAVCIS,ioos:station:WAVCIS:CSI09:1,2015-11-05T23:00:00Z,29.1015,-89.9782,0.0,24.53,11111222 
WAVCIS,ioos:station:WAVCIS:CSI09:1,2015-11-06T00:00:00Z,29.1015,-89.9782,0.0,24.74,11111222 
WAVCIS,ioos:station:WAVCIS:CSI09:1,2015-11-06T01:00:00Z,29.1015,-89.9782,0.0,24.74,11111222 
WAVCIS,ioos:station:WAVCIS:CSI09:1,2015-11-06T02:00:00Z,29.1015,-89.9782,0.0,24.7,11111222 
WAVCIS,ioos:station:WAVCIS:CSI09:1,2015-11-06T03:00:00Z,29.1015,-89.9782,0.0,24.68,11111222 
WAVCIS,ioos:station:WAVCIS:CSI09:1,2015-11-06T04:00:00Z,29.1015,-89.9782,0.0,24.65,11111222 
WAVCIS,ioos:station:WAVCIS:CSI09:1,2015-11-06T05:00:00Z,29.1015,-89.9782,0.0,24.6,11111222 
WAVCIS,ioos:station:WAVCIS:CSI09:1,2015-11-06T06:00:00Z,29.1015,-89.9782,0.0,24.56,11111222 
WAVCIS,ioos:station:WAVCIS:CSI09:1,2015-11-06T07:00:00Z,29.1015,-89.9782,0.0,24.57,11111222 
WAVCIS,ioos:station:WAVCIS:CSI09:1,2015-11-06T08:00:00Z,29.1015,-89.9782,0.0,24.57,11111222 
WAVCIS,ioos:station:WAVCIS:CSI09:1,2015-11-06T09:00:00Z,29.1015,-89.9782,0.0,24.58,11111222 
WAVCIS,ioos:station:WAVCIS:CSI09:1,2015-11-06T10:00:00Z,29.1015,-89.9782,0.0,24.58,11111222 
WAVCIS,ioos:station:WAVCIS:CSI09:1,2015-11-06T11:00:00Z,29.1015,-89.9782,0.0,24.58,11111222 
WAVCIS,ioos:station:WAVCIS:CSI09:1,2015-11-06T12:00:00Z,29.1015,-89.9782,0.0,24.56,11111222 
WAVCIS,ioos:station:WAVCIS:CSI09:1,2015-11-06T13:00:00Z,29.1015,-89.9782,0.0,24.56,11111222 
WAVCIS,ioos:station:WAVCIS:CSI09:1,2015-11-06T14:00:00Z,29.1015,-89.9782,0.0,24.65,11111222 
WAVCIS,ioos:station:WAVCIS:CSI09:1,2015-11-06T15:00:00Z,29.1015,-89.9782,0.0,24.77,11111222 
WAVCIS,ioos:station:WAVCIS:CSI09:1,2015-11-06T16:00:00Z,29.1015,-89.9782,0.0,24.81,11111222 
WAVCIS,ioos:station:WAVCIS:CSI09:1,2015-11-06T17:00:00Z,29.1015,-89.9782,0.0,24.86,11111222 
WAVCIS,ioos:station:WAVCIS:CSI09:1,2015-11-06T18:00:00Z,29.1015,-89.9782,0.0,24.94,11111222 
WAVCIS,ioos:station:WAVCIS:CSI09:1,2015-11-06T19:00:00Z,29.1015,-89.9782,0.0,24.97,11111222 
WAVCIS,ioos:station:WAVCIS:CSI09:1,2015-11-06T20:00:00Z,29.1015,-89.9782,0.0,25.05,11111222 
WAVCIS,ioos:station:WAVCIS:CSI09:1,2015-11-06T21:00:00Z,29.1015,-89.9782,0.0,25.09,11111222 
WAVCIS,ioos:station:WAVCIS:CSI09:1,2015-11-06T22:00:00Z,29.1015,-89.9782,0.0,25.05,11111222 
WAVCIS,ioos:station:WAVCIS:CSI09:1,2015-11-06T23:00:00Z,29.1015,-89.9782,0.0,24.93,11111222 
WAVCIS,ioos:station:WAVCIS:CSI09:1,2015-11-07T00:00:00Z,29.1015,-89.9782,0.0,24.83,11111222 
WAVCIS,ioos:station:WAVCIS:CSI09:1,2015-11-07T01:00:00Z,29.1015,-89.9782,0.0,24.78,11111222 
WAVCIS,ioos:station:WAVCIS:CSI09:1,2015-11-07T02:00:00Z,29.1015,-89.9782,0.0,24.82,11111222 
WAVCIS,ioos:station:WAVCIS:CSI09:1,2015-11-07T03:00:00Z,29.1015,-89.9782,0.0,24.95,11111222 
WAVCIS,ioos:station:WAVCIS:CSI09:1,2015-11-07T04:00:00Z,29.1015,-89.9782,0.0,24.9,11111222 
WAVCIS,ioos:station:WAVCIS:CSI09:1,2015-11-07T05:00:00Z,29.1015,-89.9782,0.0,24.9,11111222 
WAVCIS,ioos:station:WAVCIS:CSI09:1,2015-11-07T06:00:00Z,29.1015,-89.9782,0.0,24.92,11111222 
WAVCIS,ioos:station:WAVCIS:CSI09:1,2015-11-07T07:00:00Z,29.1015,-89.9782,0.0,24.99,11111222 
WAVCIS,ioos:station:WAVCIS:CSI09:1,2015-11-07T08:00:00Z,29.1015,-89.9782,0.0,25.04,11111222 
WAVCIS,ioos:station:WAVCIS:CSI09:1,2015-11-07T09:00:00Z,29.1015,-89.9782,0.0,25.04,11111222 
WAVCIS,ioos:station:WAVCIS:CSI09:1,2015-11-07T10:00:00Z,29.1015,-89.9782,0.0,24.99,11111222 
WAVCIS,ioos:station:WAVCIS:CSI09:1,2015-11-07T11:00:00Z,29.1015,-89.9782,0.0,24.98,11111222 
WAVCIS,ioos:station:WAVCIS:CSI09:1,2015-11-07T12:00:00Z,29.1015,-89.9782,0.0,24.94,11111222 
WAVCIS,ioos:station:WAVCIS:CSI09:1,2015-11-07T13:00:00Z,29.1015,-89.9782,0.0,24.93,11111222 
WAVCIS,ioos:station:WAVCIS:CSI09:1,2015-11-07T14:00:00Z,29.1015,-89.9782,0.0,24.93,11111222 
WAVCIS,ioos:station:WAVCIS:CSI09:1,2015-11-07T15:00:00Z,29.1015,-89.9782,0.0,24.9,11111222 
WAVCIS,ioos:station:WAVCIS:CSI09:1,2015-11-07T16:00:00Z,29.1015,-89.9782,0.0,24.88,11111222 
WAVCIS,ioos:station:WAVCIS:CSI09:1,2015-11-07T17:00:00Z,29.1015,-89.9782,0.0,24.89,11111222 
WAVCIS,ioos:station:WAVCIS:CSI09:1,2015-11-07T18:00:00Z,29.1015,-89.9782,0.0,24.87,11111222 
WAVCIS,ioos:station:WAVCIS:CSI09:1,2015-11-07T19:00:00Z,29.1015,-89.9782,0.0,24.9,11111222 
WAVCIS,ioos:station:WAVCIS:CSI09:1,2015-11-07T20:00:00Z,29.1015,-89.9782,0.0,24.89,11111222 
WAVCIS,ioos:station:WAVCIS:CSI09:1,2015-11-07T21:00:00Z,29.1015,-89.9782,0.0,24.89,11111222 
WAVCIS,ioos:station:WAVCIS:CSI09:1,2015-11-07T22:00:00Z,29.1015,-89.9782,0.0,24.9,11111222 
WAVCIS,ioos:station:WAVCIS:CSI09:1,2015-11-07T23:00:00Z,29.1015,-89.9782,0.0,24.88,11111222 
WAVCIS,ioos:station:WAVCIS:CSI09:1,2015-11-08T00:00:00Z,29.1015,-89.9782,0.0,24.84,11111222 
WAVCIS,ioos:station:WAVCIS:CSI09:1,2015-11-08T01:00:00Z,29.1015,-89.9782,0.0,24.82,11111222 
WAVCIS,ioos:station:WAVCIS:CSI09:1,2015-11-08T02:00:00Z,29.1015,-89.9782,0.0,24.79,11111222 
WAVCIS,ioos:station:WAVCIS:CSI09:1,2015-11-08T03:00:00Z,29.1015,-89.9782,0.0,24.73,11111222 
WAVCIS,ioos:station:WAVCIS:CSI09:1,2015-11-08T04:00:00Z,29.1015,-89.9782,0.0,24.68,11111222 
WAVCIS,ioos:station:WAVCIS:CSI09:1,2015-11-08T05:00:00Z,29.1015,-89.9782,0.0,24.68,11111222 
WAVCIS,ioos:station:WAVCIS:CSI09:1,2015-11-08T06:00:00Z,29.1015,-89.9782,0.0,24.67,11111222 
WAVCIS,ioos:station:WAVCIS:CSI09:1,2015-11-08T07:00:00Z,29.1015,-89.9782,0.0,24.67,11111222 
WAVCIS,ioos:station:WAVCIS:CSI09:1,2015-11-08T08:00:00Z,29.1015,-89.9782,0.0,24.66,11111222 
WAVCIS,ioos:station:WAVCIS:CSI09:1,2015-11-08T09:00:00Z,29.1015,-89.9782,0.0,24.64,11111222 
WAVCIS,ioos:station:WAVCIS:CSI09:1,2015-11-08T10:00:00Z,29.1015,-89.9782,0.0,24.59,11111222 
WAVCIS,ioos:station:WAVCIS:CSI09:1,2015-11-08T11:00:00Z,29.1015,-89.9782,0.0,24.49,11111222 
WAVCIS,ioos:station:WAVCIS:CSI09:1,2015-11-08T12:00:00Z,29.1015,-89.9782,0.0,24.38,11111222 
WAVCIS,ioos:station:WAVCIS:CSI09:1,2015-11-08T13:00:00Z,29.1015,-89.9782,0.0,24.34,11111222 
WAVCIS,ioos:station:WAVCIS:CSI09:1,2015-11-08T14:00:00Z,29.1015,-89.9782,0.0,24.31,11111222 
WAVCIS,ioos:station:WAVCIS:CSI09:1,2015-11-08T15:00:00Z,29.1015,-89.9782,0.0,24.31,11111222 
WAVCIS,ioos:station:WAVCIS:CSI09:1,2015-11-08T16:00:00Z,29.1015,-89.9782,0.0,24.28,11111222 
WAVCIS,ioos:station:WAVCIS:CSI09:1,2015-11-08T17:00:00Z,29.1015,-89.9782,0.0,24.25,11111222 
WAVCIS,ioos:station:WAVCIS:CSI09:1,2015-11-08T18:00:00Z,29.1015,-89.9782,0.0,24.25,11111222 
WAVCIS,ioos:station:WAVCIS:CSI09:1,2015-11-08T19:00:00Z,29.1015,-89.9782,0.0,24.22,11111222 
WAVCIS,ioos:station:WAVCIS:CSI09:1,2015-11-08T20:00:00Z,29.1015,-89.9782,0.0,24.21,11111222 
WAVCIS,ioos:station:WAVCIS:CSI09:1,2015-11-08T21:00:00Z,29.1015,-89.9782,0.0,24.19,11111222 
WAVCIS,ioos:station:WAVCIS:CSI09:1,2015-11-08T22:00:00Z,29.1015,-89.9782,0.0,24.0,11111222 
WAVCIS,ioos:station:WAVCIS:CSI09:1,2015-11-08T23:00:00Z,29.1015,-89.9782,0.0,24.0,11111222 
WAVCIS,ioos:station:WAVCIS:CSI09:1,2015-11-09T00:00:00Z,29.1015,-89.9782,0.0,23.99,11111222 
WAVCIS,ioos:station:WAVCIS:CSI09:1,2015-11-09T01:00:00Z,29.1015,-89.9782,0.0,23.97,11111222 
WAVCIS,ioos:station:WAVCIS:CSI09:1,2015-11-09T02:00:00Z,29.1015,-89.9782,0.0,23.93,11111222 
WAVCIS,ioos:station:WAVCIS:CSI09:1,2015-11-09T03:00:00Z,29.1015,-89.9782,0.0,23.91,11111222 
WAVCIS,ioos:station:WAVCIS:CSI09:1,2015-11-09T04:00:00Z,29.1015,-89.9782,0.0,23.9,11111222 
WAVCIS,ioos:station:WAVCIS:CSI09:1,2015-11-09T05:00:00Z,29.1015,-89.9782,0.0,23.86,11111222 
WAVCIS,ioos:station:WAVCIS:CSI09:1,2015-11-09T06:00:00Z,29.1015,-89.9782,0.0,23.83,11111222 
WAVCIS,ioos:station:WAVCIS:CSI09:1,2015-11-09T07:00:00Z,29.1015,-89.9782,0.0,23.79,11111222 
WAVCIS,ioos:station:WAVCIS:CSI09:1,2015-11-09T08:00:00Z,29.1015,-89.9782,0.0,23.79,11111222 
WAVCIS,ioos:station:WAVCIS:CSI09:1,2015-11-09T09:00:00Z,29.1015,-89.9782,0.0,23.76,11111222 
WAVCIS,ioos:station:WAVCIS:CSI09:1,2015-11-09T10:00:00Z,29.1015,-89.9782,0.0,23.71,11111222 
WAVCIS,ioos:station:WAVCIS:CSI09:1,2015-11-09T11:00:00Z,29.1015,-89.9782,0.0,23.69,11111222 
WAVCIS,ioos:station:WAVCIS:CSI09:1,2015-11-09T12:00:00Z,29.1015,-89.9782,0.0,23.64,11111222 
WAVCIS,ioos:station:WAVCIS:CSI09:1,2015-11-09T13:00:00Z,29.1015,-89.9782,0.0,23.66,11111222 
WAVCIS,ioos:station:WAVCIS:CSI09:1,2015-11-09T14:00:00Z,29.1015,-89.9782,0.0,23.61,11111222 
WAVCIS,ioos:station:WAVCIS:CSI09:1,2015-11-09T15:00:00Z,29.1015,-89.9782,0.0,23.56,11111222 
WAVCIS,ioos:station:WAVCIS:CSI09:1,2015-11-09T16:00:00Z,29.1015,-89.9782,0.0,23.57,11111222 
WAVCIS,ioos:station:WAVCIS:CSI09:1,2015-11-09T17:00:00Z,29.1015,-89.9782,0.0,23.53,11111222 
WAVCIS,ioos:station:WAVCIS:CSI09:1,2015-11-09T18:00:00Z,29.1015,-89.9782,0.0,23.53,11111222 
WAVCIS,ioos:station:WAVCIS:CSI09:1,2015-11-09T19:00:00Z,29.1015,-89.9782,0.0,23.54,11111222 
WAVCIS,ioos:station:WAVCIS:CSI09:1,2015-11-09T20:00:00Z,29.1015,-89.9782,0.0,23.54,11111222 
WAVCIS,ioos:station:WAVCIS:CSI09:1,2015-11-09T21:00:00Z,29.1015,-89.9782,0.0,23.56,11111222 
WAVCIS,ioos:station:WAVCIS:CSI09:1,2015-11-09T22:00:00Z,29.1015,-89.9782,0.0,23.56,11111222 
WAVCIS,ioos:station:WAVCIS:CSI09:1,2015-11-09T23:00:00Z,29.1015,-89.9782,0.0,23.55,11111222 
WAVCIS,ioos:station:WAVCIS:CSI09:1,2015-11-10T00:00:00Z,29.1015,-89.9782,0.0,23.48,11111222 
WAVCIS,ioos:station:WAVCIS:CSI09:1,2015-11-10T01:00:00Z,29.1015,-89.9782,0.0,23.44,11111222 
WAVCIS,ioos:station:WAVCIS:CSI09:1,2015-11-10T02:00:00Z,29.1015,-89.9782,0.0,23.43,11111222 
WAVCIS,ioos:station:WAVCIS:CSI09:1,2015-11-10T03:00:00Z,29.1015,-89.9782,0.0,23.4,11111222 
WAVCIS,ioos:station:WAVCIS:CSI09:1,2015-11-10T04:00:00Z,29.1015,-89.9782,0.0,23.38,11111222 
WAVCIS,ioos:station:WAVCIS:CSI09:1,2015-11-10T05:00:00Z,29.1015,-89.9782,0.0,23.38,11111222 
WAVCIS,ioos:station:WAVCIS:CSI09:1,2015-11-10T06:00:00Z,29.1015,-89.9782,0.0,23.39,11111222 
WAVCIS,ioos:station:WAVCIS:CSI09:1,2015-11-10T07:00:00Z,29.1015,-89.9782,0.0,23.37,11111222 
WAVCIS,ioos:station:WAVCIS:CSI09:1,2015-11-10T08:00:00Z,29.1015,-89.9782,0.0,23.39,11111222 
WAVCIS,ioos:station:WAVCIS:CSI09:1,2015-11-10T09:00:00Z,29.1015,-89.9782,0.0,23.43,11111222 
WAVCIS,ioos:station:WAVCIS:CSI09:1,2015-11-10T10:00:00Z,29.1015,-89.9782,0.0,23.42,11111222 
WAVCIS,ioos:station:WAVCIS:CSI09:1,2015-11-10T11:00:00Z,29.1015,-89.9782,0.0,23.42,11111222 
WAVCIS,ioos:station:WAVCIS:CSI09:1,2015-11-10T12:00:00Z,29.1015,-89.9782,0.0,23.43,11111222 
WAVCIS,ioos:station:WAVCIS:CSI09:1,2015-11-10T13:00:00Z,29.1015,-89.9782,0.0,23.41,11111222 
WAVCIS,ioos:station:WAVCIS:CSI09:1,2015-11-10T14:00:00Z,29.1015,-89.9782,0.0,23.4,11111222 
WAVCIS,ioos:station:WAVCIS:CSI09:1,2015-11-10T15:00:00Z,29.1015,-89.9782,0.0,23.38,11111222 
WAVCIS,ioos:station:WAVCIS:CSI09:1,2015-11-10T16:00:00Z,29.1015,-89.9782,0.0,23.36,11111222 
WAVCIS,ioos:station:WAVCIS:CSI09:1,2015-11-10T17:00:00Z,29.1015,-89.9782,0.0,23.36,11111222 
WAVCIS,ioos:station:WAVCIS:CSI09:1,2015-11-10T18:00:00Z,29.1015,-89.9782,0.0,23.41,11111222 
WAVCIS,ioos:station:WAVCIS:CSI09:1,2015-11-10T19:00:00Z,29.1015,-89.9782,0.0,23.43,11111222 
WAVCIS,ioos:station:WAVCIS:CSI09:1,2015-11-10T20:00:00Z,29.1015,-89.9782,0.0,23.45,11111222 
WAVCIS,ioos:station:WAVCIS:CSI09:1,2015-11-10T21:00:00Z,29.1015,-89.9782,0.0,23.47,11111222 
WAVCIS,ioos:station:WAVCIS:CSI09:1,2015-11-10T22:00:00Z,29.1015,-89.9782,0.0,23.49,11111222 
WAVCIS,ioos:station:WAVCIS:CSI09:1,2015-11-10T23:00:00Z,29.1015,-89.9782,0.0,23.49,11111222 
WAVCIS,ioos:station:WAVCIS:CSI09:1,2015-11-11T00:00:00Z,29.1015,-89.9782,0.0,23.43,11111222 
WAVCIS,ioos:station:WAVCIS:CSI09:1,2015-11-11T01:00:00Z,29.1015,-89.9782,0.0,23.4,11111222 
WAVCIS,ioos:station:WAVCIS:CSI09:1,2015-11-11T02:00:00Z,29.1015,-89.9782,0.0,23.39,11111222 
WAVCIS,ioos:station:WAVCIS:CSI09:1,2015-11-11T03:00:00Z,29.1015,-89.9782,0.0,23.35,11111222 
WAVCIS,ioos:station:WAVCIS:CSI09:1,2015-11-11T04:00:00Z,29.1015,-89.9782,0.0,23.28,11111222 
WAVCIS,ioos:station:WAVCIS:CSI09:1,2015-11-11T05:00:00Z,29.1015,-89.9782,0.0,23.24,11111222 
WAVCIS,ioos:station:WAVCIS:CSI09:1,2015-11-11T06:00:00Z,29.1015,-89.9782,0.0,23.26,11111222 
WAVCIS,ioos:station:WAVCIS:CSI09:1,2015-11-11T07:00:00Z,29.1015,-89.9782,0.0,23.26,11111222 
WAVCIS,ioos:station:WAVCIS:CSI09:1,2015-11-11T08:00:00Z,29.1015,-89.9782,0.0,23.21,11111222 
WAVCIS,ioos:station:WAVCIS:CSI09:1,2015-11-11T09:00:00Z,29.1015,-89.9782,0.0,23.1,11111222 
WAVCIS,ioos:station:WAVCIS:CSI09:1,2015-11-11T10:00:00Z,29.1015,-89.9782,0.0,23.17,11111222 
WAVCIS,ioos:station:WAVCIS:CSI09:1,2015-11-11T11:00:00Z,29.1015,-89.9782,0.0,23.12,11111222 
WAVCIS,ioos:station:WAVCIS:CSI09:1,2015-11-11T12:00:00Z,29.1015,-89.9782,0.0,23.06,11111222 
WAVCIS,ioos:station:WAVCIS:CSI09:1,2015-11-11T13:00:00Z,29.1015,-89.9782,0.0,23.0,11111222 
WAVCIS,ioos:station:WAVCIS:CSI09:1,2015-11-11T14:00:00Z,29.1015,-89.9782,0.0,22.99,11111222 
WAVCIS,ioos:station:WAVCIS:CSI09:1,2015-11-11T15:00:00Z,29.1015,-89.9782,0.0,22.93,11111222 
WAVCIS,ioos:station:WAVCIS:CSI09:1,2015-11-11T16:00:00Z,29.1015,-89.9782,0.0,23.05,11111222 